TimeCDT,TemperatureF,Dew PointF,Humidity,Sea Level PressureIn,VisibilityMPH,Wind Direction,Wind SpeedMPH,Gust SpeedMPH,PrecipitationIn,Events,Conditions,WindDirDegrees,DateUTC
12:13 AM,68.9,65.8,90,29.89,7.0,Calm,Calm,-,N/A,,Clear,0,2013-09-07 05:13:00
12:32 AM,69.8,65.8,87,29.89,10.0,Calm,Calm,-,N/A,,Clear,0,2013-09-07 05:32:00
12:53 AM,69.8,65.5,86,29.89,10.0,Calm,Calm,-,N/A,,Clear,0,2013-09-07 05:53:00
1:13 AM,68.4,64.9,89,29.90,10.0,Calm,Calm,-,N/A,,Clear,0,2013-09-07 06:13:00
1:32 AM,68.7,65.1,88,29.89,10.0,Calm,Calm,-,N/A,,Clear,0,2013-09-07 06:32:00
1:52 AM,67.1,63.9,89,29.89,7.0,Calm,Calm,-,N/A,,Clear,0,2013-09-07 06:52:00
2:13 AM,66.4,63.9,92,29.89,7.0,Calm,Calm,-,N/A,,Clear,0,2013-09-07 07:13:00
2:32 AM,66.4,64.4,93,29.89,7.0,Calm,Calm,-,N/A,,Clear,0,2013-09-07 07:32:00
2:53 AM,65.7,63.7,93,29.89,7.0,Calm,Calm,-,N/A,,Clear,0,2013-09-07 07:53:00
3:13 AM,65.7,64.0,94,29.89,7.0,Calm,Calm,-,N/A,,Clear,0,2013-09-07 08:13:00
3:33 AM,65.5,63.9,94,29.90,5.0,Calm,Calm,-,N/A,,Clear,0,2013-09-07 08:33:00
3:53 AM,64.6,63.1,95,29.90,5.0,Calm,Calm,-,N/A,,Clear,0,2013-09-07 08:53:00
4:13 AM,64.2,62.8,95,29.90,5.0,Calm,Calm,-,N/A,,Clear,0,2013-09-07 09:13:00
4:32 AM,63.7,62.6,96,29.89,5.0,Calm,Calm,-,N/A,,Clear,0,2013-09-07 09:32:00
4:53 AM,63.7,62.6,96,29.89,5.0,Calm,Calm,-,N/A,,Clear,0,2013-09-07 09:53:00
5:13 AM,63.5,62.1,95,29.90,5.0,Calm,Calm,-,N/A,,Clear,0,2013-09-07 10:13:00
5:32 AM,63.7,62.6,96,29.90,5.0,Calm,Calm,-,N/A,,Clear,0,2013-09-07 10:32:00
5:53 AM,63.7,62.6,96,29.91,5.0,Calm,Calm,-,N/A,,Clear,0,2013-09-07 10:53:00
6:13 AM,63.5,62.1,95,29.91,5.0,Calm,Calm,-,N/A,,Clear,0,2013-09-07 11:13:00
6:33 AM,63.9,62.6,96,29.92,5.0,Calm,Calm,-,N/A,,Clear,0,2013-09-07 11:33:00
6:52 AM,63.0,61.7,96,29.93,5.0,Calm,Calm,-,N/A,,Clear,0,2013-09-07 11:52:00
7:13 AM,63.7,62.4,96,29.94,5.0,Calm,Calm,-,N/A,,Clear,0,2013-09-07 12:13:00
7:33 AM,66.0,64.6,95,29.94,7.0,Calm,Calm,-,N/A,,Clear,0,2013-09-07 12:33:00
7:53 AM,69.8,66.9,91,29.94,10.0,Calm,Calm,-,N/A,,Clear,0,2013-09-07 12:53:00
8:13 AM,71.8,67.3,86,29.94,10.0,Calm,Calm,-,N/A,,Clear,0,2013-09-07 13:13:00
8:33 AM,73.6,67.5,81,29.94,10.0,North,5.8,-,N/A,,Clear,360,2013-09-07 13:33:00
8:52 AM,75.2,67.6,77,29.94,10.0,North,5.8,-,N/A,,Clear,10,2013-09-07 13:52:00
9:13 AM,77.2,68.0,73,29.95,10.0,NNE,6.9,-,N/A,,Clear,20,2013-09-07 14:13:00
9:33 AM,78.8,68.0,69,29.95,10.0,NNE,8.1,16.1,N/A,,Clear,20,2013-09-07 14:33:00
9:53 AM,80.4,68.0,66,29.95,10.0,NNE,9.2,-,N/A,,Clear,30,2013-09-07 14:53:00
10:13 AM,81.9,67.6,62,29.96,10.0,NNE,10.4,-,N/A,,Clear,20,2013-09-07 15:13:00
10:32 AM,82.0,67.6,62,29.96,10.0,NNE,6.9,-,N/A,,Clear,30,2013-09-07 15:32:00
10:53 AM,83.7,67.5,58,29.97,10.0,NNE,9.2,-,N/A,,Clear,20,2013-09-07 15:53:00
11:13 AM,85.6,66.2,52,29.97,10.0,NNE,10.4,-,N/A,,Clear,30,2013-09-07 16:13:00
11:33 AM,86.5,65.8,50,29.97,10.0,NE,8.1,-,N/A,,Clear,40,2013-09-07 16:33:00
11:52 AM,87.4,64.4,46,29.97,10.0,NE,8.1,-,N/A,,Clear,50,2013-09-07 16:52:00
12:13 PM,88.0,63.0,43,29.97,10.0,NNE,13.8,18.4,N/A,,Clear,30,2013-09-07 17:13:00
12:33 PM,88.3,63.5,43,29.97,10.0,NNE,8.1,17.3,N/A,,Clear,20,2013-09-07 17:33:00
12:53 PM,89.4,61.9,40,29.96,10.0,ENE,6.9,-,N/A,,Clear,60,2013-09-07 17:53:00
1:13 PM,90.0,61.2,38,29.96,10.0,NNE,6.9,-,N/A,,Clear,30,2013-09-07 18:13:00
1:33 PM,89.8,63.5,41,29.96,10.0,NE,6.9,-,N/A,,Clear,40,2013-09-07 18:33:00
1:53 PM,91.8,63.0,38,29.96,10.0,NNE,10.4,-,N/A,,Clear,20,2013-09-07 18:53:00
2:13 PM,91.4,61.2,36,29.96,5.0,NNE,10.4,-,N/A,,Haze,30,2013-09-07 19:13:00
2:33 PM,91.2,61.3,37,29.96,10.0,North,8.1,-,N/A,,Clear,10,2013-09-07 19:33:00
2:52 PM,90.1,61.5,38,29.96,7.0,NNE,9.2,16.1,N/A,,Scattered Clouds,20,2013-09-07 19:52:00
3:13 PM,89.6,61.2,38,29.96,7.0,NNE,9.2,-,N/A,,Clear,20,2013-09-07 20:13:00
3:33 PM,89.6,61.5,39,29.96,7.0,NE,6.9,-,N/A,,Clear,40,2013-09-07 20:33:00
3:53 PM,89.4,61.9,40,29.96,7.0,North,4.6,-,N/A,,Clear,10,2013-09-07 20:53:00
4:12 PM,91.0,61.7,37,29.96,7.0,NNE,6.9,-,N/A,,Scattered Clouds,30,2013-09-07 21:12:00
4:33 PM,90.7,61.3,37,29.95,5.0,North,4.6,-,N/A,,Haze,10,2013-09-07 21:33:00
4:53 PM,90.1,60.1,36,29.95,7.0,NE,5.8,-,N/A,,Scattered Clouds,50,2013-09-07 21:53:00
5:13 PM,91.4,61.5,37,29.96,7.0,NNE,10.4,-,N/A,,Scattered Clouds,30,2013-09-07 22:13:00
5:32 PM,88.2,62.6,42,29.96,7.0,NNE,8.1,-,N/A,,Scattered Clouds,30,2013-09-07 22:32:00
5:53 PM,89.1,61.9,40,29.97,7.0,NNE,8.1,-,N/A,,Clear,30,2013-09-07 22:53:00
6:12 PM,89.4,61.3,39,29.97,7.0,North,8.1,-,N/A,,Clear,10,2013-09-07 23:12:00
6:33 PM,84.9,65.3,52,29.98,7.0,NE,6.9,16.1,N/A,,Clear,40,2013-09-07 23:33:00
6:53 PM,83.5,65.3,54,29.98,10.0,NNE,5.8,-,N/A,,Clear,30,2013-09-07 23:53:00
7:12 PM,82.2,65.3,56,29.98,10.0,NNE,3.5,-,N/A,,Clear,30,2013-09-08 00:12:00
7:33 PM,81.1,65.3,58,29.99,10.0,NNE,4.6,-,N/A,,Clear,30,2013-09-08 00:33:00
7:53 PM,79.9,65.8,62,29.99,10.0,NNE,5.8,-,N/A,,Scattered Clouds,30,2013-09-08 00:53:00
8:13 PM,79.3,66.2,64,29.99,10.0,NE,4.6,-,N/A,,Scattered Clouds,40,2013-09-08 01:13:00
8:33 PM,78.4,66.2,66,30.00,10.0,NE,3.5,-,N/A,,Clear,40,2013-09-08 01:33:00
8:52 PM,77.7,65.7,66,30.00,10.0,NNE,3.5,-,N/A,,Clear,30,2013-09-08 01:52:00
9:13 PM,77.0,65.7,68,30.01,10.0,NE,3.5,-,N/A,,Clear,40,2013-09-08 02:13:00
9:33 PM,76.3,65.7,70,30.01,10.0,NE,3.5,-,N/A,,Scattered Clouds,40,2013-09-08 02:33:00
9:52 PM,76.1,65.8,70,30.01,10.0,NE,4.6,-,N/A,,Scattered Clouds,40,2013-09-08 02:52:00
10:13 PM,77.0,65.3,67,30.02,10.0,ENE,11.5,-,N/A,,Clear,60,2013-09-08 03:13:00
10:33 PM,75.7,64.0,67,30.03,10.0,ENE,15.0,19.6,N/A,,Clear,70,2013-09-08 03:33:00
10:52 PM,74.3,62.4,66,30.04,10.0,NE,13.8,18.4,N/A,,Clear,50,2013-09-08 03:52:00
11:13 PM,72.9,60.3,65,30.04,10.0,ENE,13.8,-,N/A,,Clear,60,2013-09-08 04:13:00
11:33 PM,71.6,58.6,64,30.04,10.0,ENE,11.5,-,N/A,,Clear,70,2013-09-08 04:33:00
11:53 PM,70.9,57.9,63,30.05,10.0,ENE,10.4,-,N/A,,Clear,60,2013-09-08 04:53:00